User: anonymous   Login
Location: Unspecified
(0.0000°N, 0.0000°E)
Time: 21:25:35
(UTC+00:00)
Language:

SAUDISAT 4 - Orbit

View from above orbital plane
View from above orbital plane
View from above satellite
View from above satellite

Ground track
Ground track

The orbit data is extracted from the following two-line orbital elements,

1 40016U 14033G   18051.77519965 +.00000024 +00000-0 +10933-4 0  9992
2 40016 097.8320 296.7210 0047773 204.4682 155.4260 14.75169436197807
Epoch (UTC): 20 February 2018 18:36:17
Eccentricity: 0.0047773
inclination: 97.8320°
perigee height: 611 km
apogee height: 678 km
right ascension of ascending node: 296.7210°
argument of perigee: 204.4682°
revolutions per day: 14.75169436
mean anomaly at epoch: 155.4260°
orbit number at epoch: 19780

The dashed part of the orbit path shows where the satellite is in the earth's shadow,  

DLR